sat.trackr.live / text

‹ back to catalog

STARLINK-35646

NORAD 66859 · 2025-281M

PAYLOAD ACTIVE UNKNOWN

§ Identity

Operator
Country
US
Launch date
2025-12-02
Launch site
AFETR
Launch vehicle
Mass (kg)
RCS (m²)

Purposes: comms

External: N2YO · Heavens-Above · Gunter

§ Orbital elements

Epoch: 2026-09-20T04:56:00.441888Z

Period
94.27 min
Inclination
43.0018°
Eccentricity
0.0001505
Mean motion
15.27584694 rev/d
Perigee alt
482.0 km
Apogee alt
484.1 km
Semi-major
6,861.2 km
B*
3.0327e-4
RAAN
325.0009°
Arg perigee
276.7258°
Mean anomaly
83.3422°
Rev number
4,593

§ Raw data

STARLINK-356461 66859U 25281M   26263.20556067  .00008094  00000+0  30327-3 0  99902 66859  43.0018 325.0009 0001505 276.7258  83.3422 15.27584694 45933

JSON: /api/v1/satellites/66859 · /tle

For live sub-satellite position, see the globe view (requires WebGL).

§ Visibility from observer

Set your observer location to see the next 7 days of passes ≥ 10°. The values pass through the URL so the page stays shareable.

No JS? Fill the form by hand. The geolocation button needs JavaScript.